�N����,����,����,����,����,�C��,���x,�~����,���Ǝ���,�S�V����,�ő�u�ԕ���,,,
,,,,,,,,,,����,����,����,�N��
yyyy/mm/dd,hh:mm:ss,(16),16����,m/s,��,%,mm,min,KW/�u,(16),16����,m/s,Time
2012/3/1,1:00:00,270,��,2.8,-11.6,90.4,0,0,0.01,270,��,3.7,50
2012/3/1,2:00:00,293,���k��,2.1,-10.5,90.4,0,0,0.01,293,���k��,3.4,8
2012/3/1,3:00:00,293,���k��,1.7,-10.3,91.7,0,0,0.01,270,��,3.1,21
2012/3/1,4:00:00,293,���k��,2.3,-8.9,88.7,0,0,0.01,315,�k��,3.5,53
2012/3/1,5:00:00,293,���k��,2,-8.9,89.8,0,0,0.01,293,���k��,3.5,48
2012/3/1,6:00:00,293,���k��,2.2,-9.6,90.8,0,0,0.01,315,�k��,3.5,46
2012/3/1,7:00:00,293,���k��,2.4,-8.8,91.9,0,0,0.03,270,��,3.3,7
2012/3/1,8:00:00,315,�k��,1.1,-6.9,87,0,43,0.14,315,�k��,2.8,27
2012/3/1,9:00:00,23,�k�k��,0.6,-5.9,77.8,0,60,0.27,225,�쐼,2,18
2012/3/1,10:00:00,45,�k��,0.6,-1.1,75.1,0,60,0.51,293,���k��,2.1,32
2012/3/1,11:00:00,68,���k��,2.2,1.1,75.3,0,60,0.69,90,��,3.3,59
2012/3/1,12:00:00,45,�k��,2,1.1,75.4,0,60,0.73,68,���k��,3.7,31
2012/3/1,13:00:00,68,���k��,1.9,2,73.9,0,60,0.71,45,�k��,3.5,7
2012/3/1,14:00:00,23,�k�k��,2.1,2.1,72,0,60,0.64,45,�k��,2.5,0
2012/3/1,15:00:00,68,���k��,0.9,2.3,72.1,0,60,0.47,45,�k��,3,3
2012/3/1,16:00:00,113,���쓌,0.9,0.6,74.9,0,60,0.25,180,��,3.3,17
2012/3/1,17:00:00,360,�k,1.5,-1.9,81.6,0,3,0.07,23,�k�k��,2.7,39
2012/3/1,18:00:00,293,���k��,1,-6.5,89.3,0,0,0.01,360,�k,2,1
2012/3/1,19:00:00,315,�k��,1.6,-5.6,86.2,0,0,0.01,315,�k��,2.7,18
2012/3/1,20:00:00,293,���k��,1.5,-9.1,88.9,0,0,0.01,270,��,2.5,40
2012/3/1,21:00:00,270,��,1.6,-8.4,93.6,0,0,0.01,270,��,2.5,56
2012/3/1,22:00:00,315,�k��,0.4,-9.9,90.6,0,0,0.01,293,���k��,2.8,35
2012/3/1,23:00:00,293,���k��,1.2,-9.5,93.8,0,0,0.01,270,��,2.4,44
2012/3/1,0:00:00,293,���k��,1.3,-10.4,89.6,0,0,0.01,293,���k��,2.5,42
2012/3/2,1:00:00,315,�k��,1.7,-9.7,91.3,0,0,0.01,293,���k��,3.5,14
2012/3/2,2:00:00,315,�k��,0.9,-10.9,91,0,0,0.01,23,�k�k��,3.4,29
2012/3/2,3:00:00,270,��,1.8,-12.5,88.5,0,0,0.01,270,��,2.5,54
2012/3/2,4:00:00,248,���쐼,1,-12.1,94.6,0,0,0.01,248,���쐼,2.4,41
2012/3/2,5:00:00,293,���k��,1.7,-14,91.6,0,0,0.01,293,���k��,2.5,56
2012/3/2,6:00:00,270,��,1.8,-13.1,93.4,0,0,0.01,315,�k��,3.1,30
2012/3/2,7:00:00,203,��쐼,1.6,-13.8,92.7,0,0,0.05,180,��,2.3,50
2012/3/2,8:00:00,315,�k��,2.5,-3,62.7,0,22,0.12,315,�k��,5.9,42
2012/3/2,9:00:00,315,�k��,4.4,-1.3,59.5,0,60,0.23,338,�k�k��,9.5,28
2012/3/2,10:00:00,315,�k��,5.4,-0.3,53.4,0,60,0.43,338,�k�k��,8.9,23
2012/3/2,11:00:00,315,�k��,4.9,0.3,49.8,0,60,0.52,293,���k��,9.3,34
2012/3/2,12:00:00,315,�k��,3.9,1.1,52.5,0,60,0.53,315,�k��,8.2,2
2012/3/2,13:00:00,315,�k��,2.7,1.3,52.6,0,60,0.57,338,�k�k��,7.6,0
2012/3/2,14:00:00,113,���쓌,2.4,0.7,67,0,60,0.4,158,��쓌,5.8,59
2012/3/2,15:00:00,180,��,3.2,-0.8,80,0,60,0.23,158,��쓌,6.7,0
2012/3/2,16:00:00,180,��,2.1,-1.1,76.8,0,50,0.15,180,��,4.9,17
2012/3/2,17:00:00,203,��쐼,0.8,-1.6,74.2,0,0,0.06,225,�쐼,3.6,39
2012/3/2,18:00:00,180,��,1,-3.8,81.6,0,0,0.01,225,�쐼,2.4,14
2012/3/2,19:00:00,203,��쐼,0.7,-4.4,87.2,0,0,0.01,225,�쐼,2.4,12
2012/3/2,20:00:00,45,�k��,1.4,-2.6,87,0,0,0.01,45,�k��,2.1,51
2012/3/2,21:00:00,113,���쓌,3.1,-1.5,83.8,0,0,0.01,113,���쓌,5.2,59
2012/3/2,22:00:00,68,���k��,3.5,-2.1,88.3,0,0,0.01,90,��,7.2,21
2012/3/2,23:00:00,45,�k��,3.9,-2.9,92.3,0,0,0.01,45,�k��,6.9,59
2012/3/2,0:00:00,68,���k��,4.4,-3.5,92.2,0,0,0.01,68,���k��,7.5,0
2012/3/3,1:00:00,68,���k��,3.5,-3.4,93,0,0,0.01,68,���k��,6.3,4
2012/3/3,2:00:00,68,���k��,4.3,-3.7,92.5,0,0,0.01,68,���k��,7.3,45
2012/3/3,3:00:00,68,���k��,3.8,-4,93.2,0,0,0.01,68,���k��,6.5,15
2012/3/3,4:00:00,23,�k�k��,2.4,-4.7,93.6,0,0,0.01,45,�k��,5.7,19
2012/3/3,5:00:00,23,�k�k��,1.8,-5.2,92.9,0,0,0.01,360,�k,4.1,20
2012/3/3,6:00:00,23,�k�k��,1.9,-5.4,92.4,0,0,0.01,23,�k�k��,3.8,39
2012/3/3,7:00:00,23,�k�k��,2.4,-4.9,90,0,0,0.03,23,�k�k��,4.3,40
2012/3/3,8:00:00,23,�k�k��,2.5,-4.7,89.5,1.5,15,0.1,360,�k,3.7,9
2012/3/3,9:00:00,23,�k�k��,2.3,-3.9,88.3,0,60,0.26,360,�k,3.7,43
2012/3/3,10:00:00,45,�k��,3.1,-3.8,87.3,0,60,0.37,45,�k��,4.5,35
2012/3/3,11:00:00,68,���k��,3.4,-2.7,88.7,0,60,0.55,68,���k��,5.1,41
2012/3/3,12:00:00,68,���k��,2.9,-3.2,88.3,0,60,0.54,68,���k��,5,0
2012/3/3,13:00:00,90,��,2.7,-2.6,88.1,0,60,0.61,90,��,4.5,42
2012/3/3,14:00:00,90,��,2.6,-2.1,88.2,0,60,0.5,90,��,4.3,13
2012/3/3,15:00:00,90,��,2.3,-3.1,88.1,0,60,0.42,90,��,4.3,13
2012/3/3,16:00:00,45,�k��,1.4,-3.6,93.2,0,60,0.29,113,���쓌,3.2,13
2012/3/3,17:00:00,135,�쓌,1,-3.8,90.5,0,13,0.09,68,���k��,2.3,15
2012/3/3,18:00:00,180,��,0.3,-3.9,89.6,0,0,0.01,180,��,2.3,55
2012/3/3,19:00:00,315,�k��,1.1,-7.1,96.2,0,0,0.01,315,�k��,1.5,52
2012/3/3,20:00:00,315,�k��,2.5,-4.8,96.8,0,0,0.01,338,�k�k��,4.3,54
2012/3/3,21:00:00,315,�k��,3,-6.7,75.7,0,0,0.01,338,�k�k��,7.1,35
2012/3/3,22:00:00,338,�k�k��,2.5,-6,70.1,0,0,0.01,315,�k��,6,14
2012/3/3,23:00:00,338,�k�k��,4,-5.8,67.6,0,0,0.01,338,�k�k��,7.5,48
2012/3/3,0:00:00,315,�k��,2.9,-7,66.1,0,0,0.01,315,�k��,7.2,1
2012/3/4,1:00:00,293,���k��,3.1,-10.7,65.4,0,0,0.01,315,�k��,6,12
2012/3/4,2:00:00,315,�k��,3.1,-8.7,67.8,0,0,0.01,315,�k��,5.4,28
2012/3/4,3:00:00,315,�k��,3.6,-9.8,73.2,0,0,0.01,315,�k��,5.9,57
2012/3/4,4:00:00,315,�k��,3.2,-10.9,72.7,0,0,0.01,338,�k�k��,6.4,35
2012/3/4,5:00:00,315,�k��,2.7,-12.1,73.7,0,0,0.01,293,���k��,5,11
2012/3/4,6:00:00,225,�쐼,0.6,-15.2,86.2,0,0,0.01,315,�k��,3.3,5
2012/3/4,7:00:00,225,�쐼,0.7,-19.2,81.3,0,6,0.06,315,�k��,2.3,24
2012/3/4,8:00:00,293,���k��,1.9,-13.6,75.5,0,60,0.28,293,���k��,2.5,50
2012/3/4,9:00:00,68,�É�,0.1,-6.5,62.5,0,60,0.49,68,���k��,7.8,44
2012/3/4,10:00:00,113,���쓌,1.4,-5,63.6,0,60,0.65,135,�쓌,3.2,42
2012/3/4,11:00:00,135,�쓌,2,-4.9,62,0,60,0.75,158,��쓌,4.2,29
2012/3/4,12:00:00,135,�쓌,2.4,-4.7,62.4,0,60,0.79,158,��쓌,4.3,48
2012/3/4,13:00:00,158,��쓌,2.6,-4.4,63.4,0,60,0.76,135,�쓌,4.7,58
2012/3/4,14:00:00,180,��,2.7,-4.3,63.4,0,60,0.67,135,�쓌,5.4,32
2012/3/4,15:00:00,158,��쓌,1.6,-3.8,71.3,0,60,0.53,180,��,5,0
2012/3/4,16:00:00,180,��,0.6,-3.5,69.6,0,60,0.33,180,��,3.6,47
2012/3/4,17:00:00,225,�쐼,1.2,-8.5,76.9,0,29,0.12,158,��쓌,2.2,1
2012/3/4,18:00:00,293,���k��,1.5,-11.8,82.6,0,0,0.01,248,���쐼,1.9,46
2012/3/4,19:00:00,315,�k��,0.5,-15,81.4,0,0,0.01,315,�k��,3.4,35
2012/3/4,20:00:00,293,���k��,2.5,-13.2,89.6,0,0,0.01,315,�k��,3,57
2012/3/4,21:00:00,315,�k��,2.4,-14,87,0,0,0.01,293,���k��,3.6,48
2012/3/4,22:00:00,315,�k��,1.8,-15,85.1,0,0,0.01,315,�k��,3.1,3
2012/3/4,23:00:00,293,���k��,2,-15.2,88,0,0,0.01,315,�k��,3.8,9
2012/3/4,0:00:00,293,���k��,1.5,-15.6,87.6,0,0,0.01,315,�k��,3.3,23
2012/3/5,1:00:00,293,���k��,0.6,-18,88.1,0,0,0.01,293,���k��,2.3,24
2012/3/5,2:00:00,293,���k��,1.7,-18.3,85.7,0,0,0.01,293,���k��,2.3,0
2012/3/5,3:00:00,315,�k��,2.6,-12.1,85,0,0,0.01,315,�k��,4.5,47
2012/3/5,4:00:00,315,�k��,3.4,-12.3,82,0,0,0.01,315,�k��,5.2,46
2012/3/5,5:00:00,315,�k��,2.6,-12.8,80.9,0,0,0.01,338,�k�k��,4.8,47
2012/3/5,6:00:00,315,�k��,2.8,-11,79.8,0,0,0.01,315,�k��,4.9,23
2012/3/5,7:00:00,315,�k��,3.6,-10.2,76,0,0,0.06,338,�k�k��,5.5,56
2012/3/5,8:00:00,315,�k��,3,-8.7,74.6,0,60,0.17,315,�k��,5.5,37
2012/3/5,9:00:00,315,�k��,2.4,-7.1,76.2,0,60,0.25,338,�k�k��,5.2,0
2012/3/5,10:00:00,315,�k��,1.9,-6.1,79.1,0,60,0.34,315,�k��,3.7,1
2012/3/5,11:00:00,68,���k��,2,-4.7,74.8,0,60,0.36,45,�k��,2.8,49
2012/3/5,12:00:00,68,���k��,1.9,-4.7,77.2,0,60,0.31,68,���k��,3.3,32
2012/3/5,13:00:00,45,�k��,2.2,-5.3,79.3,0,60,0.19,45,�k��,3.5,44
2012/3/5,14:00:00,23,�k�k��,2.5,-4.8,82,0,60,0.14,23,�k�k��,4.2,40
2012/3/5,15:00:00,23,�k�k��,2.4,-4.8,84.5,0,16,0.1,23,�k�k��,4,1
2012/3/5,16:00:00,360,�k,1.8,-4.8,85,0,0,0.06,23,�k�k��,4.3,15
2012/3/5,17:00:00,315,�k��,2.3,-5.4,89.6,0.5,0,0.04,315,�k��,4,48
2012/3/5,18:00:00,315,�k��,2.2,-5.6,93.5,0,0,0.01,315,�k��,4.4,55
2012/3/5,19:00:00,315,�k��,3,-5.6,93.8,0,0,0.01,315,�k��,5.7,10
2012/3/5,20:00:00,315,�k��,3.4,-5.6,94.3,0,0,0.01,315,�k��,6,59
2012/3/5,21:00:00,315,�k��,3.1,-5.5,95.1,0,0,0.01,315,�k��,6.4,16
2012/3/5,22:00:00,315,�k��,3.2,-5.5,95,0,0,0.01,315,�k��,7.1,43
2012/3/5,23:00:00,315,�k��,4.3,-5.4,94.8,0,0,0.01,315,�k��,6.6,58
2012/3/5,0:00:00,315,�k��,4.9,-5.3,94.6,0,0,0.01,315,�k��,7.5,58
2012/3/6,1:00:00,315,�k��,4.6,-5.3,94.4,0,0,0.01,315,�k��,7,55
2012/3/6,2:00:00,315,�k��,4.7,-5.2,93.6,0,0,0.01,315,�k��,7.5,56
2012/3/6,3:00:00,315,�k��,3.8,-4.8,90.8,0,0,0.01,315,�k��,7.2,43
2012/3/6,4:00:00,315,�k��,4.6,-4.4,88.9,0,0,0.01,315,�k��,7.7,19
2012/3/6,5:00:00,315,�k��,3.5,-4.1,90.4,0,0,0.01,315,�k��,8.6,33
2012/3/6,6:00:00,315,�k��,5.3,-3.7,94.1,0,0,0.01,315,�k��,8.3,58
2012/3/6,7:00:00,315,�k��,4.2,-3.3,93.8,0,0,0.03,293,���k��,9.6,25
2012/3/6,8:00:00,315,�k��,4.1,-2.8,94.5,0.5,4,0.08,315,�k��,9.4,8
2012/3/6,9:00:00,315,�k��,5.8,-2.2,93,2.5,57,0.15,315,�k��,9.4,52
2012/3/6,10:00:00,315,�k��,6,-1.3,93,3.5,60,0.27,315,�k��,10.5,38
2012/3/6,11:00:00,315,�k��,6,-0.7,97.8,3,60,0.38,315,�k��,10.7,36
2012/3/6,12:00:00,338,�k�k��,4.1,-0.1,99.4,1,60,0.37,315,�k��,9.9,0
2012/3/6,13:00:00,315,�k��,6.3,0.2,99.9,0.5,60,0.34,338,�k�k��,11.1,35
2012/3/6,14:00:00,315,�k��,5.5,0.4,100,1.5,60,0.27,338,�k�k��,11.5,4
2012/3/6,15:00:00,338,�k�k��,4.7,0.8,100,0,60,0.31,338,�k�k��,9.3,46
2012/3/6,16:00:00,338,�k�k��,4.5,0.7,100,0.5,47,0.15,338,�k�k��,8.8,5
2012/3/6,17:00:00,315,�k��,4.3,0.5,100,1,0,0.04,315,�k��,8.2,46
2012/3/6,18:00:00,338,�k�k��,4.7,0.9,100,0.5,0,0.01,315,�k��,8.3,2
2012/3/6,19:00:00,315,�k��,4.8,0.9,100,0,0,0.01,338,�k�k��,8.6,13
2012/3/6,20:00:00,315,�k��,4,0.9,99.9,0,0,0.01,315,�k��,6.7,3
2012/3/6,21:00:00,338,�k�k��,3,1,99.7,0,0,0.01,315,�k��,5.8,0
2012/3/6,22:00:00,315,�k��,3.7,0.9,98.8,0,0,0.01,315,�k��,6.3,40
2012/3/6,23:00:00,315,�k��,2.9,1,95.4,0,0,0.01,315,�k��,5.9,25
2012/3/6,0:00:00,293,���k��,2.2,0.8,97.2,0,0,0.01,293,���k��,4.9,29
2012/3/7,1:00:00,293,���k��,1,0.4,98.3,0.5,0,0.01,293,���k��,3.2,2
2012/3/7,2:00:00,248,�É�,0,-0.1,99.3,0.5,0,0.01,360,�k,1.7,19
2012/3/7,3:00:00,248,�É�,0,-0.3,99.8,0,0,0.01,248,�É�,0,0
2012/3/7,4:00:00,203,�É�,0,-0.2,100,0,0,0.01,203,�É�,0,0
2012/3/7,5:00:00,203,�É�,0,-0.2,100,0,0,0.01,180,�É�,0,0
2012/3/7,6:00:00,225,�É�,0,-0.3,100,1,0,0.01,203,�É�,0,0
2012/3/7,7:00:00,248,�É�,0,-0.3,100,0.5,0,0.03,248,�É�,0,0
2012/3/7,8:00:00,158,��쓌,0.9,0.3,99.7,0.5,26,0.13,158,��쓌,2.1,58
2012/3/7,9:00:00,180,��,1.5,0.1,98.1,0,60,0.3,180,��,2.5,57
2012/3/7,10:00:00,135,�쓌,1.2,0.8,94.8,0,60,0.42,135,�쓌,2.4,40
2012/3/7,11:00:00,113,���쓌,0.9,2.4,90.5,0,60,0.56,158,��쓌,2.7,20
2012/3/7,12:00:00,68,���k��,1.8,1.9,92.3,0,60,0.5,68,���k��,3.1,57
2012/3/7,13:00:00,113,���쓌,2.7,0.7,93.5,0,60,0.44,135,�쓌,3.8,52
2012/3/7,14:00:00,113,���쓌,2.2,1.1,92.3,0,60,0.47,113,���쓌,4.1,18
2012/3/7,15:00:00,90,��,0.9,1.8,92.9,0,60,0.44,113,���쓌,3.3,0
2012/3/7,16:00:00,135,�쓌,1.5,1.1,90.8,0,60,0.26,113,���쓌,2.5,43
2012/3/7,17:00:00,225,�쐼,1.7,0.1,93.7,0,7,0.08,158,��쓌,2.6,35
2012/3/7,18:00:00,248,�É�,0.1,-1,96.6,0,0,0.01,180,��,2.9,19
2012/3/7,19:00:00,293,���k��,1.8,-1.1,98.2,0,0,0.01,293,���k��,2.5,55
2012/3/7,20:00:00,248,���쐼,0.3,-2.4,97.2,0,0,0.01,293,���k��,2.5,56
2012/3/7,21:00:00,315,�k��,1.1,-3.4,98.5,0,0,0.01,360,�k,7.1,4
2012/3/7,22:00:00,90,��,0.8,-1.8,98.7,0,0,0.01,360,�k,2.3,39
2012/3/7,23:00:00,113,�É�,0.2,-1.1,98.8,0,0,0.01,180,��,2.4,56
2012/3/7,0:00:00,68,���k��,1.3,-0.4,98.7,0,0,0.01,68,���k��,2.2,55
2012/3/8,1:00:00,68,���k��,1.1,-0.5,98.3,0,0,0,45,�k��,2.2,35
2012/3/8,2:00:00,68,���k��,1.3,-0.7,97.9,0,0,0.01,68,���k��,2.6,24
2012/3/8,3:00:00,68,���k��,1.2,-0.8,96.9,0,0,0.01,68,���k��,2.1,0
2012/3/8,4:00:00,90,��,2.4,-0.8,96.6,0,0,0.01,90,��,3.6,51
2012/3/8,5:00:00,68,���k��,2.2,-1.1,94.2,0,0,0.01,68,���k��,3.8,37
2012/3/8,6:00:00,90,��,1.9,-1.2,93.1,0,0,0.01,90,��,3.7,30
2012/3/8,7:00:00,90,��,2.1,-1.1,92.8,0,0,0.03,90,��,2.7,56
2012/3/8,8:00:00,68,���k��,2.7,-0.7,93.6,0,28,0.11,90,��,4.2,40
2012/3/8,9:00:00,45,�k��,2.5,-0.7,94.9,0,60,0.17,45,�k��,4,15
2012/3/8,10:00:00,68,���k��,2.5,-0.2,94.6,0,60,0.24,68,���k��,3.7,59
2012/3/8,11:00:00,68,���k��,3.1,0.1,92.3,0,60,0.4,68,���k��,4.5,33
2012/3/8,12:00:00,90,��,2.9,0.3,92.1,0,60,0.45,68,���k��,4.9,16
2012/3/8,13:00:00,90,��,4,-0.1,92.7,0,60,0.43,90,��,5.8,54
2012/3/8,14:00:00,90,��,3.6,-0.2,93.5,0,60,0.3,90,��,5.4,20
2012/3/8,15:00:00,68,���k��,3.3,-0.4,94.9,0,60,0.19,68,���k��,4.9,56
2012/3/8,16:00:00,45,�k��,2.7,-0.6,96.4,0,5,0.09,68,���k��,4.5,11
2012/3/8,17:00:00,68,���k��,2.5,-0.8,97,0,0,0.04,45,�k��,4.7,5
2012/3/8,18:00:00,90,��,1.8,-0.9,97.2,0,0,0.01,68,���k��,3.3,20
2012/3/8,19:00:00,68,���k��,0.9,-0.8,97.7,0,0,0.01,68,���k��,2.3,2
2012/3/8,20:00:00,90,��,0.4,-0.9,97.4,0,0,0.01,68,���k��,1.5,6
2012/3/8,21:00:00,315,�k��,1.7,-2.7,98.1,0,0,0.01,113,���쓌,2.8,9
2012/3/8,22:00:00,338,�k�k��,0.4,-2.4,98.8,0,0,0.01,315,�k��,2.1,0
2012/3/8,23:00:00,45,�k��,1.7,-1.9,98.3,0,0,0.01,45,�k��,2.5,46
2012/3/8,0:00:00,68,�É�,0.1,-5.2,96.7,0,0,0.01,23,�k�k��,3.2,19
2012/3/9,1:00:00,315,�k��,1,-3,99.2,0,0,0.01,360,�k,2.6,10
2012/3/9,2:00:00,315,�k��,1.7,-2.6,98.2,0,0,0.01,315,�k��,2.3,52
2012/3/9,3:00:00,293,���k��,2.4,-3,97,0,0,0.01,315,�k��,3.6,36
2012/3/9,4:00:00,315,�k��,2.4,-3,97.3,0,0,0.01,315,�k��,3.5,55
2012/3/9,5:00:00,360,�k,1.3,-2.9,97.2,0,0,0.01,315,�k��,4.3,10
2012/3/9,6:00:00,315,�k��,0.7,-3.5,95.4,0,0,0.01,360,�k,3.4,4
2012/3/9,7:00:00,293,���k��,2.9,-4.3,95.6,0,0,0.05,293,���k��,4,36
2012/3/9,8:00:00,293,���k��,1.5,-2.6,93,0,46,0.15,270,��,3.5,8
2012/3/9,9:00:00,315,�k��,2.5,-1.4,87.9,0,60,0.3,315,�k��,4.6,18
2012/3/9,10:00:00,315,�k��,2.4,-0.9,85.6,0,60,0.31,315,�k��,4.2,4
2012/3/9,11:00:00,270,��,1.3,0.7,76.8,0,60,0.67,293,���k��,3.4,8
2012/3/9,12:00:00,90,��,0.9,1.3,86.2,0,60,0.52,68,���k��,2.5,23
2012/3/9,13:00:00,113,���쓌,2,0.8,77.6,0,60,0.35,90,��,2.9,51
2012/3/9,14:00:00,113,���쓌,2.2,0.6,80.3,0,60,0.36,90,��,4.1,37
2012/3/9,15:00:00,158,��쓌,1.4,-0.3,79.2,0,60,0.27,135,�쓌,3.3,15
2012/3/9,16:00:00,158,��쓌,1.4,-0.7,80.8,0,60,0.25,135,�쓌,2.8,15
2012/3/9,17:00:00,180,��,1.3,-1,83.2,0,23,0.1,158,��쓌,2.8,16
2012/3/9,18:00:00,180,��,0.4,-1.6,85.6,0,0,0.01,203,��쐼,1.7,13
2012/3/9,19:00:00,135,�쓌,1,-2.8,89.2,0,0,0.01,113,���쓌,2.9,20
2012/3/9,20:00:00,68,�É�,0,-2.3,92.2,0,0,0.01,68,���k��,2.5,47
2012/3/9,21:00:00,293,���k��,0.4,-2.6,95.7,0,0,0.01,315,�k��,3.1,23
2012/3/9,22:00:00,90,��,4.1,-2.3,88.3,0,0,0.01,90,��,6.3,36
2012/3/9,23:00:00,68,���k��,4.1,-2.6,89.2,0,0,0.01,68,���k��,6.4,11
2012/3/9,0:00:00,68,���k��,3.6,-2.6,89.1,0,0,0.01,68,���k��,5.7,32
2012/3/10,1:00:00,68,���k��,3,-2.7,85.9,0,0,0.01,68,���k��,5.4,30
2012/3/10,2:00:00,338,�k�k��,1.3,-2.8,83.9,0,0,0.01,68,���k��,4.7,0
2012/3/10,3:00:00,338,�k�k��,1,-3,84.3,0,0,0.01,315,�k��,2.2,36
2012/3/10,4:00:00,315,�k��,1.3,-3.1,85.6,0,0,0.01,315,�k��,2.4,50
2012/3/10,5:00:00,338,�k�k��,0.6,-3.5,87.2,0,0,0.01,338,�k�k��,1.8,28
2012/3/10,6:00:00,315,�k��,0.8,-3.8,89.4,0,0,0.01,338,�k�k��,1.3,55
2012/3/10,7:00:00,23,�k�k��,1.5,-2.8,80.9,0,0,0.05,23,�k�k��,2.2,58
2012/3/10,8:00:00,45,�k��,2.5,-2.6,80.7,0,53,0.19,68,���k��,3.4,55
2012/3/10,9:00:00,68,���k��,2.9,-1.4,78.4,0,60,0.39,68,���k��,5,41
2012/3/10,10:00:00,90,��,4,-1.2,76.3,0,60,0.61,68,���k��,5.9,52
2012/3/10,11:00:00,68,���k��,3.7,-1.7,77.6,0,60,0.52,90,��,6.9,11
2012/3/10,12:00:00,90,��,4.4,-1,72.9,0,60,0.69,90,��,6.3,38
2012/3/10,13:00:00,113,���쓌,4.5,-1.4,70.6,0,60,0.75,90,��,6.8,21
2012/3/10,14:00:00,113,���쓌,3.5,-1.2,69.9,0,60,0.72,90,��,5.8,14
2012/3/10,15:00:00,135,�쓌,2.5,-1.7,71.3,0,60,0.58,90,��,5.3,4
2012/3/10,16:00:00,68,���k��,0.3,-1,70.7,0,60,0.39,135,�쓌,3.5,0
2012/3/10,17:00:00,90,��,1.5,-3.4,84.4,0,42,0.17,113,���쓌,2.5,20
2012/3/10,18:00:00,248,�É�,0.1,-6.1,90.1,0,0,0.02,270,��,2.4,54
2012/3/10,19:00:00,315,�É�,0.1,-8.8,90.6,0,0,0.01,315,�k��,3.9,58
2012/3/10,20:00:00,293,���k��,1.1,-5.3,93.9,0,0,0.01,360,�k,7.3,0
2012/3/10,21:00:00,315,�k��,0.6,-4.6,91.9,0,0,0.01,113,���쓌,1.8,33
2012/3/10,22:00:00,68,���k��,3.3,-3.2,84.4,0,0,0.01,90,��,7.3,23
2012/3/10,23:00:00,68,���k��,3.2,-3.6,84.2,0,0,0.01,90,��,6.2,11
2012/3/10,0:00:00,68,���k��,3.2,-4.2,83.8,0,0,0.01,68,���k��,6,41
2012/3/11,1:00:00,68,���k��,3.5,-4.4,83.1,0,0,0.01,68,���k��,5.5,34
2012/3/11,2:00:00,45,�k��,1.6,-6.3,88,0,0,0.01,90,��,5,3
2012/3/11,3:00:00,315,�k��,1.5,-6.7,92.2,0,0,0.01,315,�k��,2.6,38
2012/3/11,4:00:00,315,�k��,1.2,-6.7,91,0,0,0.01,315,�k��,1.7,0
2012/3/11,5:00:00,315,�k��,0.9,-6.7,91.5,0,0,0.01,315,�k��,1.9,1
2012/3/11,6:00:00,23,�k�k��,2,-5.2,84.3,0,0,0.01,23,�k�k��,3.2,58
2012/3/11,7:00:00,360,�k,1.8,-4.8,80.6,0,0,0.04,23,�k�k��,3.2,34
2012/3/11,8:00:00,45,�k��,1.8,-4.3,81.1,0,45,0.17,360,�k,3.3,18
2012/3/11,9:00:00,45,�k��,3.1,-3.6,70.4,0,60,0.41,68,���k��,4.6,51
2012/3/11,10:00:00,23,�k�k��,2.2,-2.3,62.7,0,60,0.66,68,���k��,4.8,14
2012/3/11,11:00:00,68,���k��,3.6,-1.1,65.1,0,60,0.83,68,���k��,7.1,40
2012/3/11,12:00:00,68,���k��,3.5,-1.3,65.8,0,60,0.85,68,���k��,7,1
2012/3/11,13:00:00,68,���k��,3.7,-2,62.9,0,60,0.81,68,���k��,7.3,25
2012/3/11,14:00:00,90,��,3.4,-1.5,67.3,0,60,0.72,68,���k��,6.3,27
2012/3/11,15:00:00,90,��,3,-2.1,71.8,0,60,0.58,113,���쓌,5.6,18
2012/3/11,16:00:00,90,��,2.9,-2.4,76.1,0,60,0.38,90,��,5,24
2012/3/11,17:00:00,90,��,1.3,-3.6,78.4,0,41,0.16,90,��,4.6,7
2012/3/11,18:00:00,90,��,0.6,-7.3,83.7,0,0,0.02,90,��,3.6,5
2012/3/11,19:00:00,293,���k��,1.3,-6.3,91.5,0,0,0.01,360,�k,1.8,7
2012/3/11,20:00:00,315,�k��,0.3,-5.6,89.2,0,0,0.01,293,���k��,1.7,11
2012/3/11,21:00:00,90,��,3.2,-3.7,82.7,0,0,0.01,90,��,4.7,52
2012/3/11,22:00:00,68,���k��,2.4,-3.6,86.4,0,0,0.01,90,��,5.7,17
2012/3/11,23:00:00,360,�k,1.6,-4.7,89.1,0,0,0.01,90,��,4.2,30
2012/3/11,0:00:00,315,�k��,1.8,-4.8,92.6,0,0,0.01,315,�k��,3.3,34
2012/3/12,1:00:00,23,�k�k��,2.5,-4.4,86.5,0,0,0.01,23,�k�k��,3.9,54
2012/3/12,2:00:00,23,�k�k��,2.8,-5.6,84.1,0,0,0.01,23,�k�k��,4.4,54
2012/3/12,3:00:00,315,�k��,2.2,-7.2,89.9,0,0,0.01,23,�k�k��,3.6,5
2012/3/12,4:00:00,315,�k��,1.7,-7.6,93.4,0,0,0.01,315,�k��,3,14
2012/3/12,5:00:00,315,�k��,1.5,-6.8,89.1,0,0,0.01,338,�k�k��,2.8,27
2012/3/12,6:00:00,315,�k��,1.9,-6.8,87.8,0,0,0.01,315,�k��,3.1,33
2012/3/12,7:00:00,315,�k��,2,-6,82.6,0,6,0.07,315,�k��,4,45
2012/3/12,8:00:00,360,�k,1.2,-4.8,76.8,0,60,0.21,293,���k��,3.9,11
2012/3/12,9:00:00,23,�k�k��,3.6,-3.8,70.5,0,60,0.32,23,�k�k��,6,32
2012/3/12,10:00:00,360,�k,2.8,-3.1,71.6,0,60,0.33,360,�k,5.8,30
2012/3/12,11:00:00,360,�k,2,-3,75.1,0,60,0.32,315,�k��,4.6,43
2012/3/12,12:00:00,45,�k��,3.3,-2.9,84.8,0,60,0.22,45,�k��,5.2,58
2012/3/12,13:00:00,338,�k�k��,1.5,-3.3,89.4,0,60,0.3,23,�k�k��,5.8,20
2012/3/12,14:00:00,338,�k�k��,1.8,-2.8,83.3,0,60,0.19,315,�k��,3.4,41
2012/3/12,15:00:00,360,�k,2.5,-2.5,80.8,0,60,0.24,360,�k,4.2,50
2012/3/12,16:00:00,360,�k,1.4,-2.1,78.6,0,60,0.14,45,�k��,3.8,59
2012/3/12,17:00:00,360,�k,2.3,-2.5,81.9,0,8,0.08,45,�k��,5.7,8
2012/3/12,18:00:00,315,�k��,2.7,-3.4,86.8,0,0,0.01,315,�k��,5.6,48
2012/3/12,19:00:00,338,�k�k��,2.6,-3.4,84.4,0,0,0.01,315,�k��,5.3,4
2012/3/12,20:00:00,338,�k�k��,1.8,-3.5,87.3,0,0,0.01,338,�k�k��,4.3,0
2012/3/12,21:00:00,315,�k��,1.5,-3.9,91.8,0,0,0.01,315,�k��,3.7,12
2012/3/12,22:00:00,23,�k�k��,3.2,-3.5,80.9,0,0,0.01,23,�k�k��,5.4,43
2012/3/12,23:00:00,315,�k��,1.5,-3.9,88.5,0,0,0.01,360,�k,4.6,22
2012/3/12,0:00:00,315,�k��,2.7,-4.2,86.3,0,0,0.01,315,�k��,4.5,49
2012/3/13,1:00:00,338,�k�k��,3.5,-5,80.6,0,0,0.01,315,�k��,5.8,55
2012/3/13,2:00:00,315,�k��,2.9,-5.9,80.2,0,0,0.01,315,�k��,6.8,27
2012/3/13,3:00:00,315,�k��,2.4,-7,82.7,0,0,0.01,315,�k��,4.9,3
2012/3/13,4:00:00,293,���k��,2,-8,81.4,0,0,0.01,338,�k�k��,3.9,4
2012/3/13,5:00:00,315,�k��,3.2,-6.5,78.7,0,0,0.01,315,�k��,5.1,57
2012/3/13,6:00:00,315,�k��,2.2,-6.5,79.2,0,0,0.01,315,�k��,5.2,6
2012/3/13,7:00:00,315,�k��,2.1,-5.7,76,0,8,0.07,293,���k��,3.9,23
2012/3/13,8:00:00,315,�k��,2.4,-4.2,68,0,60,0.23,338,�k�k��,4.2,54
2012/3/13,9:00:00,315,�k��,3.6,-3.1,63.9,0,60,0.4,338,�k�k��,6.1,43
2012/3/13,10:00:00,315,�k��,2.6,-2.6,63.7,0,60,0.46,338,�k�k��,5.3,5
2012/3/13,11:00:00,315,�k��,1.4,-0.9,62.1,0,60,0.73,293,���k��,4.4,0
2012/3/13,12:00:00,135,�쓌,3,-0.7,62,0,60,0.78,135,�쓌,4.7,53
2012/3/13,13:00:00,135,�쓌,2.5,-0.6,56.8,0,60,0.78,135,�쓌,4.5,10
2012/3/13,14:00:00,180,��,3.5,-1.3,57.2,0,60,0.7,158,��쓌,5.6,34
2012/3/13,15:00:00,180,��,3.8,-1.4,60.8,0,60,0.57,180,��,7,38
2012/3/13,16:00:00,203,��쐼,2.9,-1.9,67.1,0,60,0.37,180,��,5.8,39
2012/3/13,17:00:00,225,�쐼,2.7,-2.3,79,0,39,0.15,203,��쐼,5.1,20
2012/3/13,18:00:00,203,��쐼,3.2,-2.7,85.1,0,0,0.02,203,��쐼,5.9,6
2012/3/13,19:00:00,270,��,1.4,-2.8,88.1,0,0,0.01,180,��,5.6,2
2012/3/13,20:00:00,338,�k�k��,0.4,-5.1,90.2,0,0,0.01,338,�k�k��,2.4,1
2012/3/13,21:00:00,23,�k�k��,1.7,-5.1,90.5,0,0,0.01,23,�k�k��,2.5,56
2012/3/13,22:00:00,315,�É�,0.2,-7.7,94.7,0,0,0.01,338,�k�k��,2.5,54
2012/3/13,23:00:00,315,�k��,0.7,-9,93,0,0,0.01,315,�k��,1.7,38
2012/3/13,0:00:00,293,���k��,2,-6.6,96.8,0,0,0.01,293,���k��,2.9,53
2012/3/14,1:00:00,315,�k��,2.3,-4.7,90.8,0,0,0.01,315,�k��,4,26
2012/3/14,2:00:00,315,�k��,1.9,-4.5,89,0,0,0.01,315,�k��,3,3
2012/3/14,3:00:00,315,�k��,2.6,-4.7,89.2,0,0,0.01,315,�k��,3.8,53
2012/3/14,4:00:00,315,�k��,1.9,-5.2,87.1,0,0,0.01,315,�k��,3.2,43
2012/3/14,5:00:00,293,���k��,2.7,-5.7,83.8,0,0,0.01,315,�k��,4.1,49
2012/3/14,6:00:00,293,���k��,1.7,-8.5,89.5,0,0,0.01,315,�k��,3.4,5
2012/3/14,7:00:00,270,��,2.4,-7.4,85.5,0,14,0.09,293,���k��,3.8,43
2012/3/14,8:00:00,293,���k��,1.7,-4.6,77.9,0,60,0.23,293,���k��,3.7,0
2012/3/14,9:00:00,338,�É�,0.1,-2.7,81.9,0,60,0.48,293,���k��,2.3,0
2012/3/14,10:00:00,135,�쓌,2.3,-1.9,81.8,0,60,0.69,135,�쓌,3.7,49
2012/3/14,11:00:00,113,���쓌,3,-0.9,81.7,0,60,0.82,113,���쓌,4.6,27
2012/3/14,12:00:00,113,���쓌,2.5,-0.7,81.2,0,60,0.84,113,���쓌,4.6,8
2012/3/14,13:00:00,135,�쓌,3.2,-1.1,81,0,60,0.85,113,���쓌,5.5,43
2012/3/14,14:00:00,135,�쓌,2.5,-0.8,82.6,0,60,0.73,135,�쓌,5,47
2012/3/14,15:00:00,135,�쓌,2.3,-0.6,84,0,60,0.52,158,��쓌,4.7,12
2012/3/14,16:00:00,68,���k��,1.6,-0.3,85.5,0,60,0.39,135,�쓌,3.3,5
2012/3/14,17:00:00,45,�k��,1.9,-2.1,88.2,0,44,0.17,68,���k��,3.9,17
2012/3/14,18:00:00,68,���k��,1.1,-3.2,92.1,0,0,0.02,68,���k��,2.4,0
2012/3/14,19:00:00,45,�k��,0.9,-3.5,92.9,0,0,0.01,23,�k�k��,2.2,14
2012/3/14,20:00:00,270,��,1.5,-6.2,95.1,0,0,0.01,338,�k�k��,7.3,13
2012/3/14,21:00:00,270,��,1.4,-7.9,95.4,0,0,0.01,293,���k��,1.8,57
2012/3/14,22:00:00,293,���k��,0.8,-6.6,94.3,0,0,0.01,315,�k��,2.5,45
2012/3/14,23:00:00,293,���k��,1.5,-6.6,94.3,0,0,0.01,270,��,2.3,56
2012/3/14,0:00:00,270,��,1.3,-6.9,94.7,0,0,0.01,293,���k��,2.6,41
2012/3/15,1:00:00,293,���k��,0.5,-6.3,95,0,0,0.01,270,��,2.2,31
2012/3/15,2:00:00,293,���k��,2,-6.5,93.6,0,0,0.01,203,��쐼,4.7,35
2012/3/15,3:00:00,293,���k��,1.4,-6.9,96.9,0,0,0.01,315,�k��,2.9,16
2012/3/15,4:00:00,315,�k��,1.9,-5,92.6,0,0,0.01,315,�k��,3.6,44
2012/3/15,5:00:00,315,�k��,2.7,-4.4,92.5,0,0,0.01,315,�k��,4.4,47
2012/3/15,6:00:00,315,�k��,2.2,-4.1,90.4,0,0,0.01,315,�k��,5.3,33
2012/3/15,7:00:00,315,�k��,2.8,-3.7,89.1,0,0,0.05,338,�k�k��,5,24
2012/3/15,8:00:00,315,�k��,2,-3,86.5,0,16,0.11,315,�k��,5,16
2012/3/15,9:00:00,338,�k�k��,1.8,-1.9,82.8,0,60,0.2,315,�k��,5.1,18
2012/3/15,10:00:00,338,�k�k��,2.5,-1,80.6,0,60,0.34,315,�k��,4.4,46
2012/3/15,11:00:00,315,�k��,3.3,-0.1,78.3,0,60,0.41,315,�k��,5,41
2012/3/15,12:00:00,315,�k��,2.2,1.3,72.5,0,60,0.6,338,�k�k��,4.7,9
2012/3/15,13:00:00,135,�쓌,0.3,1.9,77.3,0,60,0.62,315,�k��,2.6,0
2012/3/15,14:00:00,45,�k��,1.5,2,81.2,0,60,0.4,158,��쓌,4,13
2012/3/15,15:00:00,315,�k��,2.6,1.3,79.5,0,39,0.19,338,�k�k��,8.7,16
2012/3/15,16:00:00,315,�k��,4,2.2,68.9,0,60,0.33,293,���k��,7.5,58
2012/3/15,17:00:00,338,�k�k��,5.7,1.1,63.8,0,43,0.16,338,�k�k��,10.7,49
2012/3/15,18:00:00,338,�k�k��,4.7,-0.1,67.4,0,0,0.02,338,�k�k��,12.6,13
2012/3/15,19:00:00,338,�k�k��,3.1,-1.1,66.5,0,0,0.01,360,�k,11.3,7
2012/3/15,20:00:00,315,�k��,4,-1.5,65.5,0,0,0.01,315,�k��,7.1,50
2012/3/15,21:00:00,338,�k�k��,3.5,-2.1,67,0,0,0.01,338,�k�k��,6.4,1
2012/3/15,22:00:00,338,�k�k��,6.9,-1.7,64.9,0,0,0.01,338,�k�k��,11.3,52
2012/3/15,23:00:00,338,�k�k��,5,-2.4,62.5,0,0,0.01,338,�k�k��,9.5,11
2012/3/15,0:00:00,315,�k��,3.5,-3.3,63.2,0,0,0.01,338,�k�k��,8.4,27